SL-12 DEB, 41807

Orbit data source: Space-Track

SL-12 DEB, 41807 is space debris in HEO originally from a launch on Mon, 25 Dec 2006 UTC launched from the Tyuratam Missile And Space Complex (TTMTR). Debris objects in space refer to the collection of defunct objects orbiting the Earth. Examples of debris include non-operational satellites, rocket bodies, and fragments generated from explosions, collisions, or faulty payload assembly.

Loading next visibility...
Identifier
41807, 2006-062M
Orbit
HEO
Country
Flag of CISCIS
Related business
Manufacturer
RKKE
Mission
Spacecraft
Bus & Motor
Unknown
Mass
Unknown
Launch date (UTC)
2006-12-25 (19 years ago)
Launch vehicle
Unknown
Launch site
Tyuratam Missile And Space Complex (TTMTR)
Object type
Payload
Rocket body
Debris
Shape & HBR
Unknown shape, 0.7 m
Radar Cross Section
Medium (>0.1 m² and <1 m²)

Expand to show TLE details & history
Last TLE update: 2 days ago

TLE from 2 days ago
0 SL-12 DEB
1 41807U 06062M   26171.35981684  .00000507  00000-0  14271-2 0  9994
2 41807  64.9329 306.4664 5592399 229.2877  66.8576  4.42887986  9455
Epoch: 2026-06-20T08:38Z
TLE epoch observation values (Epoch: 2026-06-20T08:38:08.174Z)
Latitude
-0.00003°
Longitude
-91.65234°
Altitude
10,584.234 km
Speed
4.643 km/s
True Right ascension
20h 25m 49s
True Declination
0° 00' 00"
Sunlit
Object was in daylight at epoch
Visualization orbit readout
Latitude
Unknown
Longitude
Unknown
Altitude
Unknown
Speed
Unknown
Apparent Right ascension
Unknown
Apparent Declination
Unknown
Sunlit
N/A
Visualization observer readout
Local Sidereal Time
23:18:51
Azimuth
Unknown
Elevation
Unknown
Doppler factor
Unknown
Orbital elements
Apogee altitude
18,042.344 km
Perigee altitude
524.953 km
Semi-major axis
15,661.785 km
Eccentricity
0.55924
Inclination
64.9329°
RAAN
306.4664°
Arg. of periapsis
229.2877°
True anomaly
130.80693°
Mean anomaly
66.8576°
Eccentric anomaly
98.54408°
Mean motion
1.10734 °/min
Orbital period
325.1 mins
BSTAR
0.0014271
Loading maneuver chart data...
Computing Atmospheric mass density...
Loading historical data...
Loading historical data...
Loading historical data...
Loading historical data...
Loading historical data...
Loading historical data...
Loading historical data...

Documentation

Showing up to 5 results
|